CW4629 Weather Reports


time (UTC)temp
F
wind
direction
speed
knots
gust
knots
rain 1hr
in
rain 24hr
in
rain mn
in
humidity
%
barometer
mb
20260506091814 64 357 2.6 5.2 0.00 0.00 0.00 29 1014.9
20260506090816 63 314 1.7 4.3 0.00 0.00 0.00 28 1014.7
20260506085816 64 315 0.0 1.7 0.00 0.00 0.00 29 1014.7
20260506084915 64 325 2.6 4.3 0.00 0.00 0.00 28 1014.7
20260506082116 64 2 2.6 3.5 0.00 0.00 0.00 28 1014.5
20260506082014 64 311 1.7 4.3 0.00 0.00 0.00 28 1014.5
20260506081032 65 309 4.3 6.1 0.00 0.00 0.00 28 1014.4
20260506073215 64 292 2.6 4.3 0.00 0.00 0.00 28 1014.3
20260506072229 63 292 0.0 0.0 0.00 0.00 0.00 30 1014.4
20260506071215 64 247 0.0 0.0 0.00 0.00 0.00 29 1014.5
20260506070215 65 247 0.0 0.0 0.00 0.00 0.00 27 1014.2
20260506062229 66 359 0.0 0.9 0.00 0.00 0.00 26 1014.0
20260506050533 66 292 0.0 0.0 0.00 0.00 0.00 24 1013.3
20260506044533 66 292 0.0 0.9 0.00 0.00 0.00 24 1013.1
20260506043531 66 292 0.0 0.0 0.00 0.00 0.00 22 1012.9
20260506043416 67 292 0.0 0.0 0.00 0.00 0.00 22 1013.0
20260506042431 67 292 0.0 0.9 0.00 0.00 0.00 22 1012.8
20260506040517 68 270 1.7 2.6 0.00 0.00 0.00 21 1012.5
20260506035531 67 276 4.3 6.1 0.00 0.00 0.00 21 1012.5
20260506034616 67 270 0.9 2.6 0.00 0.00 0.00 21 1012.2
20260506033618 67 247 0.0 0.0 0.00 0.00 0.00 21 1012.1
20260506032632 68 247 0.0 0.0 0.00 0.00 0.00 20 1011.9
20260506031715 68 250 0.0 2.6 0.00 0.00 0.00 20 1011.8
20260506030715 68 231 3.5 9.6 0.00 0.00 0.00 20 1011.5
20260506025732 68 248 4.3 6.1 0.00 0.00 0.00 19 1011.5
20260506025616 68 257 4.3 6.1 0.00 0.00 0.00 19 1011.4
20260506024615 69 227 4.3 7.8 0.00 0.00 0.00 19 1011.1
20260506023618 69 228 5.2 8.7 0.00 0.00 0.00 20 1011.1
20260506022616 69 226 7.8 12.2 0.00 0.00 0.00 21 1010.9
20260506021616 70 231 6.1 9.6 0.00 0.00 0.00 21 1010.6
20260506020616 70 216 7.8 13.0 0.00 0.00 0.00 20 1010.4
20260506020516 70 232 5.2 7.8 0.00 0.00 0.00 20 1010.4
20260506014632 71 219 6.1 8.7 0.00 0.00 0.00 19 1010.2
20260506013632 72 225 7.0 10.4 0.00 0.00 0.00 19 1010.1
20260506011815 72 231 9.6 13.9 0.00 0.00 0.00 17 1009.9
20260506010816 73 219 7.0 8.7 0.00 0.00 0.00 19 1010.0
20260506004814 73 236 7.8 13.0 0.00 0.00 0.00 18 1009.9
20260506003817 73 222 7.0 12.2 0.00 0.00 0.00 19 1009.9
20260506002830 73 204 7.8 12.2 0.00 0.00 0.00 19 1009.9
20260506001817 73 214 6.1 8.7 0.00 0.00 0.00 19 1009.8
20260505235915 73 231 7.0 10.4 0.00 0.00 0.00 19 1009.8
20260505234917 73 238 8.7 12.2 0.00 0.00 0.00 18 1009.8
20260505233915 73 262 5.2 8.7 0.00 0.00 0.00 18 1009.8
20260505230931 73 274 7.0 10.4 0.00 0.00 0.00 20 1009.8
20260505230015 73 303 5.2 7.0 0.00 0.00 0.00 20 1009.9
20260505225016 73 215 3.5 5.2 0.00 0.00 0.00 20 1010.0
20260505224015 74 267 7.0 12.2 0.00 0.00 0.00 20 1010.1
20260505223034 73 239 6.1 9.6 0.00 0.00 0.00 20 1010.1
20260505221116 73 281 3.5 6.1 0.00 0.00 0.00 20 1010.3
20260505220133 74 112 2.6 4.3 0.00 0.00 0.00 21 1010.4
20260505215116 75 232 7.8 12.2 0.00 0.00 0.00 20 1010.6
20260505214115 75 121 2.6 4.3 0.00 0.00 0.00 21 1010.7
20260505213115 75 171 6.1 8.7 0.00 0.00 0.00 21 1010.8
20260505212115 74 205 9.6 15.6 0.00 0.00 0.00 21 1010.8
20260505211132 72 206 4.3 6.1 0.00 0.00 0.00 22 1011.1
20260505210130 72 312 1.7 3.5 0.00 0.00 0.00 22 1011.3
20260505205116 72 355 1.7 3.5 0.00 0.00 0.00 23 1011.4
20260505204114 72 246 2.6 5.2 0.00 0.00 0.00 24 1011.6
20260505202131 70 13 2.6 4.3 0.00 0.00 0.00 25 1011.7
20260505201215 69 253 2.6 5.2 0.00 0.00 0.00 26 1012.0
20260505200315 70 327 3.5 7.0 0.00 0.00 0.00 26 1012.0
20260505195331 70 224 2.6 4.3 0.00 0.00 0.00 25 1012.0
20260505194316 71 64 3.5 4.3 0.00 0.00 0.00 24 1012.0
20260505193330 73 204 6.1 9.6 0.00 0.00 0.00 23 1012.0
20260505192414 72 349 1.7 3.5 0.00 0.00 0.00 24 1012.2
20260505191417 71 67 3.5 6.1 0.00 0.00 0.00 24 1012.1
20260505185416 70 323 0.9 3.5 0.00 0.00 0.00 25 1012.4
20260505183516 70 271 0.9 4.3 0.00 0.00 0.00 25 1012.7
20260505182515 70 56 0.9 3.5 0.00 0.00 0.00 25 1012.5
20260505181517 71 46 4.3 6.1 0.00 0.00 0.00 25 1012.5
20260505180417 70 347 0.0 1.7 0.00 0.00 0.00 26 1012.8
20260505175430 69 160 0.9 3.5 0.00 0.00 0.00 26 1012.7
20260505175329 68 143 2.6 5.2 0.00 0.00 0.00 26 1012.8
20260505175230 68 112 2.6 3.5 0.00 0.00 0.00 25 1012.7
20260505174315 69 103 3.5 5.2 0.00 0.00 0.00 26 1012.9
20260505173414 70 82 0.9 2.6 0.00 0.00 0.00 26 1013.1
20260505172415 67 224 0.0 1.7 0.00 0.00 0.00 28 1013.1
20260505171514 68 272 2.6 4.3 0.00 0.00 0.00 27 1013.1
20260505165514 68 297 3.5 4.3 0.00 0.00 0.00 27 1013.2
20260505164516 68 157 0.9 2.6 0.00 0.00 0.00 27 1013.1
20260505162530 66 111 1.7 3.5 0.00 0.00 0.00 27 1013.3
20260505161616 66 337 0.0 2.6 0.00 0.00 0.00 26 1013.4
20260505160614 66 71 1.7 4.3 0.00 0.00 0.00 27 1013.4
20260505152715 63 93 0.9 3.5 0.00 0.00 0.00 27 1013.7
20260505150830 64 180 0.0 1.7 0.00 0.00 0.00 29 1013.8
20260505140114 56 202 0.0 0.9 0.00 0.00 0.00 44 1013.8
20260505124516 48 360 2.6 5.2 0.00 0.00 0.00 55 1013.0
20260505123430 48 22 0.0 0.0 0.00 0.00 0.00 54 1012.8
20260505122516 49 22 0.0 0.0 0.00 0.00 0.00 53 1012.9
20260505121615 49 22 0.0 0.0 0.00 0.00 0.00 50 1012.8
20260505120615 49 22 0.0 0.0 0.00 0.00 0.00 50 1012.8
20260505115614 49 360 4.3 5.2 0.00 0.00 0.00 52 1012.7
20260505114614 50 22 3.5 4.3 0.00 0.00 0.00 51 1012.8
20260505113630 50 22 0.0 0.9 0.00 0.00 0.00 51 1012.8
20260505112714 49 22 0.9 2.6 0.00 0.00 0.00 50 1012.8
20260505112631 49 22 0.0 1.7 0.00 0.00 0.00 51 1012.9
20260505111713 50 1 0.9 2.6 0.00 0.00 0.00 50 1012.8
20260505110731 50 270 1.7 3.5 0.00 0.00 0.00 50 1012.6
20260505101814 51 135 0.0 0.0 0.00 0.00 0.00 46 1012.6
20260505100831 51 202 0.0 0.0 0.00 0.00 0.00 45 1012.4
20260505095913 52 202 0.0 0.0 0.00 0.00 0.00 45 1012.5
20260505094932 53 247 0.0 0.0 0.00 0.00 0.00 42 1012.4
20260505093915 53 247 0.0 0.0 0.00 0.00 0.00 43 1012.4
20260505093014 53 22 0.9 1.7 0.00 0.00 0.00 44 1012.4
20260505092931 53 22 1.7 2.6 0.00 0.00 0.00 44 1012.4